Location: *
(52.2090°N, 4.1550°W)
Time: 21:55:38
(UTC+00:00)

ATLAS 5 CENTAUR R/B - Pass Details

Date: 19 July 2019
Orbit: 569 x 1090 km, 63.4° (Epoch: 06 August)

Event Time Altitude Azimuth Distance (km) Brightness Sun altitude
Rises 23:00:30 0° 311° (NW) 3,174 6.3 -14.8°
Reaches altitude 10° 23:02:51 10° 318° (NW) 2,326 5.6 -15.0°
Maximum altitude 23:08:02 45° 31° (NNE) 1,156 3.2 -15.2°
Drops below altitude 10° 23:13:58 10° 104° (ESE) 2,667 4.5 -15.5°
Enters shadow 23:16:04 - 109° (ESE) 3,414 5.0 -15.6°
